CW8733 Weather Reports


Display with metric or nautical units.
time (UTC)temp
F
wind
direction
speed
MPH
gust
MPH
rain 1hr
in
rain 24hr
in
rain mn
in
humidity
%
barometer
mb
20260508062015 63 45 1.0 2.0 0.00 0.00 0.00 38 1015.3
20260508061036 64 68 1.0 2.0 0.00 0.00 0.00 39 1015.1
20260508060016 65 68 2.0 3.0 0.00 0.00 0.00 39 1015.3
20260508055016 66 23 2.0 3.0 0.00 0.00 0.00 37 1015.1
20260508054035 66 68 1.0 3.0 0.00 0.00 0.00 35 1015.1
20260508053016 66 68 2.0 4.0 0.00 0.00 0.00 35 1015.2
20260508052036 67 45 3.0 3.0 0.00 0.00 0.00 34 1015.0
20260508051016 67 68 2.0 3.0 0.00 0.00 0.00 34 1014.9
20260508050015 67 45 3.0 4.0 0.00 0.00 0.00 33 1014.9
20260508045056 68 68 3.0 4.0 0.00 0.00 0.00 32 1015.1
20260508044016 70 23 2.0 3.0 0.00 0.00 0.00 30 1015.2
20260508043016 72 23 2.0 3.0 0.00 0.00 0.00 28 1015.2
20260508042016 73 0.0 0.0 0.00 0.00 0.00 26 1015.0
20260508041015 74 158 2.0 4.0 0.00 0.00 0.00 25 1014.9
20260508040015 74 135 4.0 7.0 0.00 0.00 0.00 24 1014.7
20260508035015 74 135 6.0 9.0 0.00 0.00 0.00 24 1014.2
20260508034015 73 135 5.0 7.0 0.00 0.00 0.00 25 1013.9
20260508033015 73 135 4.0 7.0 0.00 0.00 0.00 25 1013.8
20260508032035 75 135 2.0 3.0 0.00 0.00 0.00 25 1013.7
20260508031015 76 0.0 0.0 0.00 0.00 0.00 22 1013.8
20260508030016 77 338 3.0 4.0 0.00 0.00 0.00 21 1013.5
20260508025016 78 248 3.0 8.0 0.00 0.00 0.00 20 1013.0
20260508024035 79 225 5.0 10.0 0.00 0.00 0.00 19 1012.8
20260508023015 80 225 10.0 18.0 0.00 0.00 0.00 18 1012.3
20260508022016 82 225 8.0 13.0 0.00 0.00 0.00 13 1011.5
20260508021015 83 270 8.0 15.0 0.00 0.00 0.00 13 1011.3
20260508020015 84 293 3.0 5.0 0.00 0.00 0.00 14 1011.2
20260508015036 84 248 2.0 6.0 0.00 0.00 0.00 14 1010.8
20260508014015 85 203 7.0 14.0 0.00 0.00 0.00 14 1010.9
20260508013018 86 225 8.0 13.0 0.00 0.00 0.00 13 1010.8
20260508012017 87 248 5.0 7.0 0.00 0.00 0.00 12 1011.0
20260508011017 87 270 5.0 7.0 0.00 0.00 0.00 11 1010.9
20260508010018 87 225 4.0 8.0 0.00 0.00 0.00 12 1010.8
20260508005017 87 203 3.0 8.0 0.00 0.00 0.00 12 1010.4
20260508004017 87 225 3.0 6.0 0.00 0.00 0.00 12 1010.3
20260508003017 88 293 5.0 10.0 0.00 0.00 0.00 12 1010.3
20260508002037 88 270 3.0 8.0 0.00 0.00 0.00 12 1010.8
20260508001017 89 68 4.0 7.0 0.00 0.00 0.00 11 1010.7
20260508000017 90 338 6.0 13.0 0.00 0.00 0.00 11 1010.9
20260507235017 89 0 3.0 7.0 0.00 0.00 0.00 11 1010.6
20260507234017 89 23 1.0 4.0 0.00 0.00 0.00 11 1010.7
20260507233018 89 158 3.0 7.0 0.00 0.00 0.00 11 1010.7
20260507232017 89 0 2.0 5.0 0.00 0.00 0.00 10 1010.7
20260507231017 88 315 4.0 7.0 0.00 0.00 0.00 11 1010.8
20260507230017 88 338 4.0 9.0 0.00 0.00 0.00 11 1010.7
20260507225017 88 248 1.0 4.0 0.00 0.00 0.00 11 1010.9
20260507224057 88 270 1.0 4.0 0.00 0.00 0.00 10 1011.0
20260507223017 88 203 3.0 8.0 0.00 0.00 0.00 11 1011.0
20260507222017 88 113 10.0 15.0 0.00 0.00 0.00 11 1011.3
20260507221037 89 90 3.0 7.0 0.00 0.00 0.00 11 1011.1
20260507220017 90 338 2.0 5.0 0.00 0.00 0.00 11 1011.4
20260507215017 90 158 3.0 7.0 0.00 0.00 0.00 11 1011.6
20260507214017 88 45 2.0 5.0 0.00 0.00 0.00 12 1011.7
20260507213037 87 293 2.0 6.0 0.00 0.00 0.00 12 1012.0
20260507212017 87 338 3.0 6.0 0.00 0.00 0.00 12 1012.1
20260507211017 87 113 6.0 10.0 0.00 0.00 0.00 12 1012.2
20260507210017 86 90 5.0 8.0 0.00 0.00 0.00 13 1012.5
20260507205017 86 45 5.0 11.0 0.00 0.00 0.00 13 1013.0
20260507204017 86 45 3.0 6.0 0.00 0.00 0.00 13 1012.8
20260507203017 85 23 5.0 8.0 0.00 0.00 0.00 13 1012.9
20260507202017 86 293 5.0 9.0 0.00 0.00 0.00 13 1013.2
20260507201017 87 293 5.0 8.0 0.00 0.00 0.00 12 1013.4
20260507200017 87 315 5.0 9.0 0.00 0.00 0.00 12 1013.6
20260507195017 86 338 7.0 11.0 0.00 0.00 0.00 13 1013.6
20260507194017 84 23 5.0 12.0 0.00 0.00 0.00 13 1013.5
20260507193017 84 68 3.0 6.0 0.00 0.00 0.00 14 1013.7
20260507192017 84 68 5.0 12.0 0.00 0.00 0.00 13 1013.8
20260507191017 84 135 2.0 6.0 0.00 0.00 0.00 13 1013.8
20260507190037 84 180 4.0 8.0 0.00 0.00 0.00 14 1013.9
20260507185017 85 248 6.0 12.0 0.00 0.00 0.00 14 1014.2
20260507184017 84 203 7.0 13.0 0.00 0.00 0.00 15 1014.1
20260507183017 84 158 7.0 12.0 0.00 0.00 0.00 16 1014.3
20260507182017 83 180 5.0 9.0 0.00 0.00 0.00 18 1014.6
20260507181017 82 248 6.0 11.0 0.00 0.00 0.00 19 1014.9
20260507180017 81 225 5.0 9.0 0.00 0.00 0.00 19 1014.9
20260507175017 81 270 3.0 7.0 0.00 0.00 0.00 20 1015.2
20260507174017 80 248 3.0 7.0 0.00 0.00 0.00 21 1015.4
20260507173017 79 180 2.0 5.0 0.00 0.00 0.00 22 1015.4
20260507172017 79 248 2.0 7.0 0.00 0.00 0.00 22 1015.6
20260507171017 78 315 3.0 7.0 0.00 0.00 0.00 23 1015.4
20260507170017 77 225 3.0 7.0 0.00 0.00 0.00 25 1015.5
20260507165017 76 270 2.0 6.0 0.00 0.00 0.00 24 1015.6
20260507164017 76 293 3.0 5.0 0.00 0.00 0.00 25 1015.8
20260507163017 75 270 3.0 6.0 0.00 0.00 0.00 25 1015.7
20260507162017 75 180 1.0 2.0 0.00 0.00 0.00 27 1015.8
20260507161017 74 293 2.0 4.0 0.00 0.00 0.00 27 1015.9
20260507160037 74 293 1.0 3.0 0.00 0.00 0.00 28 1016.1
20260507155017 72 135 2.0 3.0 0.00 0.00 0.00 29 1016.0
20260507154037 71 225 1.0 3.0 0.00 0.00 0.00 29 1016.0
20260507153017 70 158 1.0 4.0 0.00 0.00 0.00 31 1015.9
20260507152017 69 293 1.0 3.0 0.00 0.00 0.00 33 1016.1
20260507151017 69 270 2.0 4.0 0.00 0.00 0.00 33 1016.0
20260507150017 68 225 1.0 3.0 0.00 0.00 0.00 35 1016.0
20260507145017 67 203 1.0 3.0 0.00 0.00 0.00 36 1016.5
20260507144017 67 203 2.0 4.0 0.00 0.00 0.00 38 1016.4
20260507143017 66 203 1.0 2.0 0.00 0.00 0.00 38 1016.4
20260507142017 64 203 1.0 3.0 0.00 0.00 0.00 40 1016.6
20260507141017 62 180 1.0 3.0 0.00 0.00 0.00 42 1016.5
20260507140057 60 0.0 0.0 0.00 0.00 0.00 47 1016.3
20260507135017 58 0.0 0.0 0.00 0.00 0.00 49 1016.1
20260507134017 57 0.0 1.0 0.00 0.00 0.00 52 1016.0
20260507133017 55 158 1.0 3.0 0.00 0.00 0.00 57 1015.7
20260507132017 55 0.0 1.0 0.00 0.00 0.00 54 1015.7
20260507131017 56 0.0 1.0 0.00 0.00 0.00 52 1015.8
20260507130017 57 0.0 2.0 0.00 0.00 0.00 49 1015.7
20260507125017 57 180 2.0 5.0 0.00 0.00 0.00 47 1015.6
20260507124017 56 45 5.0 7.0 0.00 0.00 0.00 47 1015.6
20260507123017 55 45 4.0 8.0 0.00 0.00 0.00 50 1015.3
20260507122017 54 45 1.0 5.0 0.00 0.00 0.00 54 1015.4
20260507121017 56 0.0 1.0 0.00 0.00 0.00 51 1015.7
20260507120017 57 0.0 1.0 0.00 0.00 0.00 48 1015.6
20260507115017 57 23 4.0 9.0 0.00 0.00 0.00 45 1015.7
20260507114017 56 0 4.0 7.0 0.00 0.00 0.00 50 1015.6
20260507113017 54 23 4.0 6.0 0.00 0.00 0.00 51 1015.5
20260507112017 53 45 3.0 5.0 0.00 0.00 0.00 54 1015.5
20260507111017 53 45 3.0 4.0 0.00 0.00 0.00 56 1015.5
20260507110017 54 45 2.0 3.0 0.00 0.00 0.00 55 1015.6
20260507105017 54 90 1.0 2.0 0.00 0.00 0.00 54 1015.5
20260507104017 53 180 1.0 4.0 0.00 0.00 0.00 55 1015.3
20260507103017 53 0.0 2.0 0.00 0.00 0.00 57 1015.2
20260507102017 54 23 1.0 3.0 0.00 0.00 0.00 56 1015.4
20260507101017 54 23 1.0 3.0 0.00 0.00 0.00 56 1015.4
20260507100017 54 45 2.0 3.0 0.00 0.00 0.00 56 1015.4
20260507095017 54 23 2.0 4.0 0.00 0.00 0.00 57 1015.6
20260507094017 54 23 3.0 4.0 0.00 0.00 0.00 58 1015.6
20260507093016 54 23 3.0 4.0 0.00 0.00 0.00 56 1015.6
20260507092036 55 45 2.0 3.0 0.00 0.00 0.00 54 1015.7
20260507091016 55 0.0 3.0 0.00 0.00 0.00 54 1015.8
20260507090016 56 0.0 0.0 0.00 0.00 0.00 52 1016.0
20260507085017 57 0.0 0.0 0.00 0.00 0.00 50 1015.9
20260507084016 57 180 1.0 2.0 0.00 0.00 0.00 49 1016.0
20260507083017 59 0.0 1.0 0.00 0.00 0.00 46 1016.1
20260507082016 60 270 1.0 3.0 0.00 0.00 0.00 44 1016.2
20260507081017 61 293 1.0 3.0 0.00 0.00 0.00 40 1016.4
20260507080017 62 338 1.0 4.0 0.00 0.00 0.00 39 1016.2
20260507075016 61 23 3.0 5.0 0.00 0.00 0.00 39 1016.1
20260507074017 61 0 3.0 6.0 0.00 0.00 0.00 39 1016.1
20260507073016 61 23 3.0 6.0 0.00 0.00 0.00 41 1016.0
20260507072017 62 338 3.0 6.0 0.00 0.00 0.00 42 1016.1
20260507071016 62 68 2.0 5.0 0.00 0.00 0.00 40 1016.0
20260507070016 62 45 3.0 5.0 0.00 0.00 0.00 39 1016.0
20260507065017 61 0 4.0 6.0 0.00 0.00 0.00 41 1015.8
20260507064016 61 0 4.0 5.0 0.00 0.00 0.00 44 1015.9
20260507063017 60 45 4.0 6.0 0.00 0.00 0.00 46 1015.8